Location: Observatoire Alphonse-Tardif � St-N�r�e
(46.7267°N, 70.7033°W)
Time: 03:09:25
(UTC-04:00)

ISS - Visible Passes

Search period start: 24 September 2018 00:00
Search period end: 04 October 2018 00:00
Orbit: 403 x 409 km, 51.6° (Epoch: 25 September)

Date Brightness Start Highest point End Pass type
(mag) Time Alt. Az. Time Alt. Az. Time Alt. Az.
24 Sep -3.7 20:30:27 10° WSW 20:33:44 74° NNW 20:33:44 74° NNW visible
25 Sep -3.9 19:38:36 10° SW 19:41:53 72° SSE 19:44:09 19° ENE visible
25 Sep -1.2 21:15:28 10° W 21:16:50 21° WNW 21:16:50 21° WNW visible
26 Sep -3.0 20:23:23 10° W 20:26:35 46° NNW 20:27:07 41° NNE visible
27 Sep -3.5 19:31:21 10° WSW 19:34:37 63° NNW 19:37:18 14° ENE visible
27 Sep -1.2 21:08:27 10° WNW 21:09:58 22° NW 21:09:58 22° NW visible
28 Sep -2.6 20:16:22 10° WNW 20:19:27 35° N 20:20:06 32° NNE visible
29 Sep -2.8 19:24:14 10° W 19:27:24 42° NNW 19:30:10 13° ENE visible
29 Sep -1.3 21:01:19 10° WNW 21:02:50 22° NW 21:02:50 22° NW visible
30 Sep -2.6 20:09:16 10° WNW 20:12:18 33° N 20:12:52 31° NNE visible
01 Oct -2.5 19:17:09 10° WNW 19:20:13 34° N 19:22:52 13° ENE visible
01 Oct -1.4 20:53:59 10° WNW 20:55:32 24° NW 20:55:32 24° NW visible
02 Oct -2.8 20:02:00 10° WNW 20:05:06 36° N 20:05:32 35° NNE visible
03 Oct -2.6 19:09:57 10° WNW 19:12:59 33° N 19:15:31 13° ENE visible
03 Oct -1.6 20:46:33 10° WNW 20:48:11 26° NW 20:48:11 26° NW visible
